x

Buoy B01 - Western Maine Shelf (44030) Wave Buoy

12:04 - Mon 22nd May 2017 All times are EDT. -4 hours from GMT.

  • Sig Wave height 1.0ft
  • Peak Period 8s
  • Wind
    9mph, 11mph gusts
  • Sea Temp 53°f
  • Luft Temp 52°f
  • Sea Pressure 1021.7mb
  • Buoy B01 - Western Maine Shelf
  • Buoy B01 - Western Maine Shelf

More Historic Weather Station data

Upgrade to MSW Pro to gain access to the past 30 days of data for over 8000 Wavebouys and Weather Stations around the globe.

Join Pro

Comparision Forecast

View Surf forecast
   
Mo 05/22 12:04 1ft 8s 9 11 mph 1021.7mb 53f 52f
11:04 0.7ft  -  7 7 mph 1022.1mb 53f 52f
10:04 1ft 16s 4 4 mph 1022.5mb 52f 51f
9:04 1ft 8s 2 4 mph 1022.5mb 51f 51f
8:04 1ft 16s 7 9 mph 1023.2mb 51f 51f
7:04 0.7ft  -  7 9 mph 1023mb 51f 52f
6:04 1ft 4s 7 7 mph 1022.4mb 52f 52f
5:04 1.3ft 8s 7 9 mph 1022.6mb 52f 53f
4:04 1.3ft 4s 9 9 mph 1022.5mb 52f 53f
3:04 1.3ft 4s 7 7 mph 1022.3mb 52f 53f
2:04 1.6ft 4s 9 9 mph 1022.9mb 52f 53f
1:04 1.6ft 4s 9 9 mph 1023.2mb 52f 53f
12:04 1.6ft 3s 11 13 mph 1023.5mb 52f 53f
So 05/21 11:04 1.3ft 3s 11 13 mph 1023.8mb 52f 54f
10:04 1.3ft 4s 9 11 mph 1024.4mb 52f 53f
9:04 1.3ft 3s 7 9 mph 1024.8mb 52f 53f
8:04 1.3ft 3s 11 13 mph 1024.7mb 53f 54f
7:04 1ft 3s 13 16 mph 1024.9mb 53f 54f
6:04 1ft 3s 11 13 mph 1025mb 53f 54f
5:04 1ft 2s 11 13 mph 1025.2mb 53f 54f
4:04 1ft 2s 11 13 mph 1025.7mb 53f 54f
3:04 0.7ft  -  11 11 mph 1026.4mb 53f 54f
2:04 0.7ft  -  11 11 mph 1027.5mb 54f 54f
1:04 0.7ft  -  7 9 mph 1027.9mb 54f 54f
12:04 1ft 6s 4 7 mph 1028.6mb 53f 55f
11:04 1ft 8s 2 2 mph 1029.5mb 52f 53f
10:04 1ft 6s 7 7 mph 1029.3mb 52f 52f
9:04 1ft 6s 7 9 mph 1029.3mb 51f 52f
8:04 0.7ft  -  9 9 mph 1029.2mb 51f 51f
7:04 1ft 6s 9 11 mph 1029.2mb 51f 52f
6:04 1ft 6s 9 11 mph 1028.7mb 51f 52f
5:04 1ft 8s 11 13 mph 1028.1mb 51f 52f
4:04 1ft 8s 11 11 mph 1027.8mb 51f 52f
3:04 1ft 6s 11 11 mph 1027.3mb 51f 52f
2:04 1ft 6s 7 9 mph 1027.3mb 51f 52f
1:04 1ft 8s 4 7 mph 1027.1mb 51f 51f
12:04 1ft 6s 2 2 mph 1026.8mb 51f 51f
Sa 05/20 11:04 1.3ft 6s 2 4 mph 1026.6mb 51f 52f
10:04 1.3ft 8s 4 4 mph 1026.1mb 51f 52f
9:04 1.3ft 6s 7 7 mph 1025.3mb 51f 52f
8:04 1.3ft 3s 9 9 mph 1024.6mb 51f 53f
7:04 1.3ft 8s 11 11 mph 1024.4mb 52f 53f
6:04 1.3ft 6s 13 16 mph 1024.2mb 53f 53f
5:04 1.3ft 8s 11 13 mph 1024.3mb 53f 53f
4:04 1.3ft 8s 11 11 mph 1024.7mb 52f 53f
3:04 1.3ft 6s 11 13 mph 1025mb 53f 52f
2:04 1.3ft 6s 9 11 mph 1025.2mb 53f 53f
1:04 1.6ft 8s 9 11 mph 1025.2mb 52f 52f
12:04 1.3ft 3s 11 11 mph 1025.2mb 52f 52f
11:04 1.3ft 4s 9 9 mph 1025.4mb 52f 52f
10:04 1.6ft 6s 11 13 mph 1025.5mb 52f 52f
9:04 2ft 8s 13 16 mph 1025.3mb 51f 52f
8:04 2ft 6s 13 16 mph 1024.5mb 51f 52f
7:04 2ft 8s 13 16 mph 1023.8mb 51f 52f
6:04 2ft 8s 13 16 mph 1022.9mb 51f 52f
5:04 2ft 8s 11 13 mph 1021.6mb 51f 53f
4:04 2.5ft 6s 11 11 mph 1020.6mb 52f 53f
3:04 2.5ft 4s 11 16 mph 1019.9mb 52f 53f
2:04 2.5ft 6s 13 16 mph 1019.9mb 52f 54f
1:04 2.5ft 4s 13 16 mph 1019.4mb 52f 54f
12:04 2ft 6s 13 16 mph 1018.5mb 53f 55f
Fr 05/19 11:04 2ft 8s 11 13 mph 1017.4mb 53f 55f
10:04 1.6ft 3s 16 18 mph 1016.3mb 52f 55f
9:04 2.5ft 3s 16 18 mph 1014.9mb 49f 56f
8:04 2.5ft 6s 20 22 mph 1012.8mb 49f 60f
7:04 2.5ft 6s 13 16 mph 1011.6mb 50f 58f
6:04 3ft 3s 25 29 mph 1010mb 50f 63f
5:04 2.5ft 6s 22 25 mph 1009.5mb 51f 64f
4:04 2.5ft 6s 16 20 mph 1008.4mb 52f 63f
3:04 2.5ft 6s 11 13 mph 1007.3mb 52f 62f
2:04 2.5ft 6s 11 18 mph 1007mb 52f 65f
1:04 3ft 3s 16 22 mph 1007mb 52f 69f
12:04 2.5ft 3s 16 18 mph 1007mb 53f 68f
11:04 2ft 5s 20 25 mph 1007mb 52f 69f
10:04 2ft 6s 13 20 mph 1007.4mb 51f 63f
9:04 2.5ft 5s 9 11 mph 1007.3mb 50f 56f
8:04 2.5ft 5s 11 13 mph 1007.3mb 49f 56f
7:04 2ft 5s 11 11 mph 1007mb 50f 56f
6:04 2.5ft 5s 11 13 mph 1006.6mb 49f 55f
5:04 2ft 5s 9 11 mph 1005.6mb 48f 55f
4:04 2ft 5s 13 16 mph 1005.7mb 47f 56f
3:04 2ft 5s 13 16 mph 1006.1mb 48f 56f
2:04 2.5ft 5s 13 13 mph 1006.8mb 49f 57f
1:04 3ft 5s 11 13 mph 1006.7mb 50f 59f
12:04 3ft 3s 22 27 mph 1007.1mb 51f 67f
Do 05/18 11:04 2ft 5s 18 22 mph 1006mb 52f 62f
10:04 1.6ft 4s 18 20 mph 1005.3mb 53f 64f
9:04 1.6ft 4s 11 11 mph 1005.1mb 53f 59f
8:04 1.6ft 3s 16 16 mph 1004.8mb 52f 59f
7:04 1.6ft 4s 13 13 mph 1004.6mb 52f 59f
6:04 1.6ft 3s 11 13 mph 1005.4mb 51f 60f